HYAKURI_(JASDF) current weather conditions

sailwx.info

Wind from 340 at 0 knots

Air temperature 3.0° C
Visibility: greater than 5.4 NM
Dewpoint 1.0° C

Last reported at 2017-Mar-27 14:00 UTC.
Time now 2017-Mar-27 16:23 UTC

Location: N 36°11' E 140°25'.
View on Google Maps.

See reports from other nearby stations

  
Tides and Currents Weather Stations Pressure Air Temp Water Temp Dewpoint Dewpoint Depression Visibility Wind Speed Wind Dir Waves Ship Positions
date/time (UTC)wind fromknots sea level pressurealtimeterstation pressurevisibilityair tempwater tempwave heightnotes
2017-Mar-27 15:00 280 1 5.4 2.0
2017-Mar-27 14:45 300 2 5.4 2.0
2017-Mar-27 14:00 340 0 5.4 3.0
2017-Mar-27 13:00 340 1 5.4 4.0
2017-Mar-27 12:00 330 2 5.4 4.0
2017-Mar-27 11:00 020 7 5.4 5.0
2017-Mar-27 10:00 010 12 5.4 5.0
2017-Mar-27 09:00 360 11 5.4 5.0
2017-Mar-27 08:00 360 11 5.4 5.0
2017-Mar-27 07:00 020 13 5.4 5.0
2017-Mar-27 06:50 020 13 5.4 5.0
2017-Mar-27 06:14 360 11 5.4 5.0 Light rain showers.
2017-Mar-27 06:00 350 13 3.8 5.0 Light rain showers.
2017-Mar-27 05:23 340 14 gusting 25 2.7 4.0 Light rain showers. Mist.
2017-Mar-27 05:00 350 13 3.2 4.0 Light rain showers.
2017-Mar-27 04:49 340 13 3.2 4.0 Light rain showers.
2017-Mar-27 04:26 340 13 3.2 3.0 Light rain showers.
2017-Mar-27 04:00 340 13 2.7 2.0 Light rain showers. Mist.
2017-Mar-27 03:38 340 13 2.2 1.0 Rain showers. Mist.
2017-Mar-27 03:33 340 13 2.7 2.0 Rain showers. Mist.
2017-Mar-27 03:17 350 18 3.8 2.0 Rain showers.
2017-Mar-27 03:10 350 17 4.3 3.0 Light rain showers.
2017-Mar-27 03:00 350 17 4.3 3.0 Light rain showers.
2017-Mar-27 02:13 350 15 gusting 26 4.3 4.0 Light rain showers.
2017-Mar-27 02:00 350 17 gusting 27 4.3 4.0 Light rain showers.
2017-Mar-27 01:33 360 18 3.8 4.0 Rain showers.
2017-Mar-27 01:00 360 19 gusting 28 3.8 3.0 Light rain showers.
2017-Mar-27 00:48 360 17 gusting 27 3.8 3.0 Light rain showers.
2017-Mar-27 00:26 360 15 3.2 2.0 Light rain showers.
2017-Mar-27 00:13 360 13 2.2 1.0 Light rain showers. Mist.
2017-Mar-27 00:00 350 13 0.9 1.0 Light snow showers. Mist.
2017-Mar-26 23:20 340 14 0.9 1.0 Light snow showers. Mist.
2017-Mar-26 23:05 340 14 0.6 1.0 Light snow showers. Mist.
2017-Mar-26 23:00 350 15 0.8 1.0 Light snow showers. Mist.
2017-Mar-26 22:48 340 13 0.8 1.0 Light snow showers. Mist.
2017-Mar-26 22:29 340 13 1.1 1.0 Light snow showers. Mist.
2017-Mar-26 22:25 340 13 1.1 1.0 Light rain showers. Mist.
2017-Mar-26 22:10 350 13 1.6 1.0 Rain showers. Mist.
2017-Mar-26 22:00 350 17 1.9 2.0 Rain showers. Mist.
2017-Mar-26 21:28 360 14 1.9 4.0 Rain showers. Mist.
2017-Mar-26 21:00 010 20 1.9 4.0 Rain showers. Mist.
2017-Mar-26 20:35 010 20 1.9 4.0 Rain showers. Mist.
2017-Mar-26 20:07 010 19 gusting 28 1.7 5.0 Rain showers. Mist.
2017-Mar-26 20:00 010 19 1.7 5.0 Rain showers. Mist.
2017-Mar-26 19:18 020 17 1.6 5.0 Rain showers. Mist.
2017-Mar-26 19:00 020 17 1.7 5.0 Light rain showers. Mist.
2017-Mar-26 18:08 020 15 gusting 27 1.6 5.0 Rain showers. Mist.
2017-Mar-26 18:00 020 17 1.7 5.0 Light rain showers. Mist.
2017-Mar-26 17:05 030 15 gusting 26 1.6 6.0 Light rain showers. Mist.
2017-Mar-26 17:00 030 15 2.7 6.0 Light rain showers. Mist.
2017-Mar-26 16:50 030 14 4.3 6.0 Light rain showers.
2017-Mar-26 16:28 020 13 5.4 6.0
2017-Mar-26 16:00 020 12 5.4 6.0 Light rain showers.
2017-Mar-26 15:00 010 11 4.3 6.0 Light rain showers.
2017-Mar-26 14:47 010 8 4.3 6.0 Light rain showers.
2017-Mar-26 14:00 020 9 2.7 6.0 Light rain showers. Mist.
2017-Mar-26 13:00 020 9 2.7 6.0 Light rain showers. Mist.
2017-Mar-26 12:00 010 8 3.2 6.0 Light rain showers.
2017-Mar-26 11:00 030 8 2.7 7.0 Light rain. Mist.
2017-Mar-26 10:00 010 6 2.7 7.0 Light rain. Mist.
2017-Mar-26 09:00 040 6 3.2 7.0 Light rain.
2017-Mar-26 08:38 040 7 3.8 7.0 Light rain.
2017-Mar-26 08:19 050 7 5.4 8.0 Light rain.
2017-Mar-26 08:00 040 9 5.4 8.0
2017-Mar-26 07:35 040 8 5.4 8.0
2017-Mar-26 07:16 060 9 5.4 8.0 Light rain.
2017-Mar-26 07:00 080 6 5.4 8.0
2017-Mar-26 06:03 070 6 5.4 9.0 Light rain.
2017-Mar-26 06:00 040 6 5.4 9.0 Light rain showers.
2017-Mar-26 05:21 050 6 5.4 8.0 Light rain showers.
2017-Mar-26 05:00 060 5 5.4 8.0 Light rain showers.
2017-Mar-26 04:37 060 7 5.4 7.0 Light rain showers.
2017-Mar-26 04:21 080 11 5.4 8.0 Light rain showers.
2017-Mar-26 04:00 060 6 5.4 9.0
2017-Mar-26 03:34 090 6 5.4 9.0
2017-Mar-26 03:00 060 6 5.4 9.0 Light rain.
2017-Mar-26 02:51 060 6 5.4 9.0 Light rain.
2017-Mar-26 02:00 040 7 5.4 9.0
2017-Mar-26 01:00 020 7 5.4 7.0
2017-Mar-26 00:00 030 6 5.4 6.0
2017-Mar-25 23:45 020 7 5.4 6.0
2017-Mar-25 23:00 010 6 5.4 6.0 Light rain.
2017-Mar-25 22:00 010 5 5.4 4.0 Light rain showers.
2017-Mar-25 21:00 320 5 5.4 3.0 Light rain showers.
2017-Mar-25 20:00 330 5 5.4 3.0 Light rain showers.
2017-Mar-25 19:00 310 2 5.4 3.0 Light rain showers.
2017-Mar-25 18:28 350 6 5.4 3.0 Light rain showers.
2017-Mar-25 18:00 350 2 5.4 3.0
2017-Mar-25 17:00 010 4 5.4 3.0
2017-Mar-25 16:00 030 5 5.4 2.0